Retour au catalogue

COSMOS 2251 DEB

ActifLEO
NORAD 37535·DEBRIS·🇷🇺 Russia

Lancé Jun 16, 1993 depuis Plesetsk Cosmodrome

Loading…

Prochains Passages (prochaines 24 heures)

TLE

FraisSource: Space-Track

Époque: Sep 14, 2026, 10:08 UTC

1 37535U 93036BNQ 26257.42247770  .00001743  00000-0  36790-3 0  9992
2 37535  74.0197 267.5807 0028737 330.2750  98.1141 14.59930007893467

Suivez COSMOS 2251 DEB en temps réel avec AllMySat

Download on the App Store